HKE559 VVDN-VHHH

Flight info

Callsign HKE559
Flight time 1h 25m
Altitude 35000
Route BUNTA2G BUNTA A1 LENKO/K0820F370 A1 IKELA/N0445F370 P901 IDOSI V561 CANTO
Aircraft A20N/M-SDE2E3FGHIRWXY/LB1

Departure

Time 2026-04-25 09:46
Airport Da Nang International Airport (VVDN)

Arrival

Time 2026-04-25 11:11
Airport Hong Kong International Airport (VHHH)
Time Latitude Longitude Altitude Speed Heading
2026-04-25 09:20 16.05627 108.20145 34 ft 0 kts 81°
2026-04-25 09:38 16.05624 108.20130 34 ft 4 kts 82°
2026-04-25 09:38 16.05621 108.20102 34 ft 4 kts 84°
2026-04-25 09:39 16.05619 108.20074 32 ft 4 kts 87°
2026-04-25 09:39 16.05618 108.20046 31 ft 4 kts 92°
2026-04-25 09:39 16.05621 108.20018 33 ft 4 kts 112°
2026-04-25 09:40 16.05633 108.20002 30 ft 1 kts 171°
2026-04-25 09:41 16.05631 108.20002 30 ft 1 kts 171°
2026-04-25 09:41 16.05604 108.20006 32 ft 9 kts 171°
2026-04-25 09:41 16.05514 108.20020 34 ft 16 kts 172°
2026-04-25 09:41 16.05388 108.20039 34 ft 20 kts 172°
2026-04-25 09:42 16.05236 108.20059 34 ft 23 kts 172°
2026-04-25 09:42 16.05063 108.20084 34 ft 27 kts 172°
2026-04-25 09:42 16.04868 108.20113 33 ft 29 kts 172°
2026-04-25 09:42 16.04682 108.20142 33 ft 26 kts 172°
2026-04-25 09:43 16.04493 108.20169 33 ft 29 kts 172°
2026-04-25 09:43 16.04299 108.20197 33 ft 28 kts 172°
2026-04-25 09:43 16.04110 108.20225 34 ft 26 kts 172°
2026-04-25 09:43 16.03924 108.20251 34 ft 28 kts 172°
2026-04-25 09:44 16.03739 108.20277 34 ft 27 kts 172°
2026-04-25 09:44 16.03558 108.20304 34 ft 26 kts 173°
2026-04-25 09:44 16.03385 108.20330 33 ft 25 kts 169°
2026-04-25 09:44 16.03200 108.20355 32 ft 28 kts 170°
2026-04-25 09:45 16.03061 108.20376 33 ft 19 kts 172°
2026-04-25 09:45 16.02935 108.20345 30 ft 21 kts 238°
2026-04-25 09:45 16.02969 108.20243 31 ft 17 kts 360°
2026-04-25 09:45 16.03221 108.20210 32 ft 66 kts 352°
2026-04-25 09:46 16.03892 108.20113 34 ft 125 kts 352°
2026-04-25 09:46 16.04898 108.19959 156 ft 156 kts 353°
2026-04-25 09:46 16.05982 108.19844 788 ft 155 kts 359°
2026-04-25 09:46 16.07064 108.19840 1405 ft 156 kts
2026-04-25 09:47 16.07789 108.19853 1793 ft 159 kts
2026-04-25 09:47 16.08995 108.19867 2182 ft 190 kts
2026-04-25 09:47 16.10862 108.19875 3267 ft 213 kts 360°
2026-04-25 09:47 16.12418 108.19849 3869 ft 234 kts 358°
2026-04-25 09:48 16.13538 108.19813 4216 ft 249 kts 358°
2026-04-25 09:48 16.15976 108.19728 5032 ft 272 kts 358°
2026-04-25 09:48 16.17235 108.19688 5631 ft 274 kts 358°
2026-04-25 09:48 16.19165 108.19632 6529 ft 279 kts 358°
2026-04-25 09:49 16.21140 108.19578 7059 ft 287 kts 358°
2026-04-25 09:49 16.23122 108.19526 7164 ft 283 kts 358°
2026-04-25 09:49 16.25099 108.19475 7275 ft 284 kts 358°
2026-04-25 09:49 16.27091 108.19423 7393 ft 285 kts 358°
2026-04-25 09:50 16.29056 108.19372 7497 ft 285 kts 358°
2026-04-25 09:50 16.31045 108.19410 7597 ft 286 kts 11°
2026-04-25 09:50 16.32820 108.20162 7702 ft 287 kts 36°
2026-04-25 09:50 16.34172 108.21728 7793 ft 287 kts 62°
2026-04-25 09:51 16.34870 108.23686 7891 ft 288 kts 73°
2026-04-25 09:51 16.35447 108.25697 7995 ft 289 kts 73°
2026-04-25 09:51 16.36014 108.27705 8087 ft 289 kts 73°
2026-04-25 09:51 16.36595 108.29713 8181 ft 290 kts 73°
2026-04-25 09:52 16.37183 108.31697 8275 ft 290 kts 72°
2026-04-25 09:52 16.37787 108.33705 8378 ft 291 kts 72°
2026-04-25 09:52 16.38397 108.35720 8475 ft 291 kts 72°
2026-04-25 09:52 16.39008 108.37733 8573 ft 292 kts 72°
2026-04-25 09:53 16.39621 108.39755 8673 ft 292 kts 72°
2026-04-25 09:53 16.40235 108.41781 8770 ft 293 kts 72°
2026-04-25 09:53 16.40841 108.43784 8869 ft 294 kts 72°
2026-04-25 09:53 16.41457 108.45819 8968 ft 294 kts 72°
2026-04-25 09:54 16.42071 108.47851 9068 ft 294 kts 72°
2026-04-25 09:54 16.42689 108.49895 9170 ft 295 kts 72°
2026-04-25 09:54 16.43306 108.51938 9268 ft 296 kts 72°
2026-04-25 09:54 16.43926 108.53993 9374 ft 296 kts 72°
2026-04-25 09:55 16.44546 108.56045 9467 ft 297 kts 72°
2026-04-25 09:55 16.45166 108.58101 9561 ft 297 kts 72°
2026-04-25 09:55 16.45754 108.60135 9667 ft 298 kts 73°
2026-04-25 09:55 16.46325 108.62219 9783 ft 298 kts 74°
2026-04-25 09:56 16.46890 108.64299 9871 ft 299 kts 74°
2026-04-25 09:56 16.47460 108.66390 9963 ft 299 kts 74°
2026-04-25 09:56 16.48053 108.68553 10071 ft 325 kts 74°
2026-04-25 09:56 16.48702 108.70908 10168 ft 347 kts 73°
2026-04-25 09:57 16.49372 108.73336 10257 ft 348 kts 73°
2026-04-25 09:57 16.50032 108.75725 10347 ft 348 kts 73°
2026-04-25 09:57 16.50705 108.78164 10441 ft 350 kts 73°
2026-04-25 09:57 16.51377 108.80603 10532 ft 350 kts 73°
2026-04-25 09:58 16.52050 108.83044 10626 ft 351 kts 73°
2026-04-25 09:58 16.52725 108.85495 10722 ft 351 kts 73°
2026-04-25 09:58 16.53403 108.87959 11030 ft 356 kts 73°
2026-04-25 09:58 16.54085 108.90439 11835 ft 356 kts 73°
2026-04-25 09:59 16.54764 108.92911 12567 ft 360 kts 73°
2026-04-25 09:59 16.55480 108.95435 13262 ft 365 kts 70°
2026-04-25 09:59 16.56478 108.97882 13928 ft 369 kts 61°
2026-04-25 09:59 16.57818 109.00176 14540 ft 372 kts 54°
2026-04-25 10:00 16.59300 109.02422 15140 ft 377 kts 54°
2026-04-25 10:00 16.60784 109.04695 15750 ft 381 kts 54°
2026-04-25 10:00 16.62266 109.06975 16294 ft 386 kts 54°
2026-04-25 10:00 16.63796 109.09332 16881 ft 390 kts 54°
2026-04-25 10:01 16.65327 109.11693 17436 ft 395 kts 54°
2026-04-25 10:01 16.66860 109.14055 17994 ft 399 kts 54°
2026-04-25 10:01 16.68421 109.16461 18485 ft 404 kts 54°
2026-04-25 10:01 16.70001 109.18898 18984 ft 407 kts 54°
2026-04-25 10:02 16.71594 109.21355 19472 ft 410 kts 54°
2026-04-25 10:02 16.73200 109.23834 19953 ft 414 kts 54°
2026-04-25 10:02 16.74824 109.26340 20435 ft 417 kts 53°
2026-04-25 10:02 16.76457 109.28862 20908 ft 421 kts 53°
2026-04-25 10:03 16.78109 109.31414 21358 ft 425 kts 53°
2026-04-25 10:03 16.79771 109.33983 21836 ft 428 kts 53°
2026-04-25 10:03 16.81424 109.36539 22273 ft 432 kts 53°
2026-04-25 10:03 16.83116 109.39157 22717 ft 435 kts 53°
2026-04-25 10:04 16.84819 109.41790 23183 ft 438 kts 53°
2026-04-25 10:04 16.86542 109.44452 23595 ft 442 kts 53°
2026-04-25 10:04 16.88248 109.47086 23973 ft 444 kts 53°
2026-04-25 10:04 16.89982 109.49766 24376 ft 446 kts 53°
2026-04-25 10:05 16.91724 109.52459 24756 ft 449 kts 53°
2026-04-25 10:05 16.93476 109.55169 25133 ft 451 kts 53°
2026-04-25 10:05 16.95229 109.57881 25500 ft 453 kts 53°
2026-04-25 10:05 16.96998 109.60620 25874 ft 455 kts 53°
2026-04-25 10:06 16.98768 109.63360 26221 ft 458 kts 53°
2026-04-25 10:06 17.00557 109.66132 26588 ft 460 kts 53°
2026-04-25 10:06 17.02347 109.68906 26931 ft 462 kts 53°
2026-04-25 10:06 17.04149 109.71700 27254 ft 464 kts 53°
2026-04-25 10:07 17.05966 109.74518 27603 ft 466 kts 52°
2026-04-25 10:07 17.07790 109.77349 27932 ft 469 kts 52°
2026-04-25 10:07 17.09604 109.80165 28252 ft 471 kts 52°
2026-04-25 10:07 17.11438 109.83013 28569 ft 473 kts 52°
2026-04-25 10:08 17.13263 109.85846 28867 ft 475 kts 52°
2026-04-25 10:08 17.15131 109.88750 29182 ft 477 kts 52°
2026-04-25 10:08 17.16968 109.91606 29476 ft 479 kts 52°
2026-04-25 10:08 17.18825 109.94495 29768 ft 481 kts 52°
2026-04-25 10:09 17.20692 109.97401 30045 ft 484 kts 52°
2026-04-25 10:09 17.22576 110.00334 30293 ft 486 kts 52°
2026-04-25 10:09 17.24437 110.03231 30519 ft 489 kts 52°
2026-04-25 10:09 17.26370 110.06242 30766 ft 491 kts 52°
2026-04-25 10:10 17.28284 110.09227 31026 ft 493 kts 52°
2026-04-25 10:10 17.30195 110.12207 31335 ft 494 kts 52°
2026-04-25 10:10 17.32111 110.15198 31650 ft 494 kts 52°
2026-04-25 10:10 17.34027 110.18189 31994 ft 494 kts 52°
2026-04-25 10:11 17.35944 110.21184 32330 ft 494 kts 52°
2026-04-25 10:11 17.37860 110.24177 32649 ft 494 kts 52°
2026-04-25 10:11 17.39771 110.27165 32963 ft 494 kts 52°
2026-04-25 10:11 17.41688 110.30162 33280 ft 494 kts 52°
2026-04-25 10:12 17.43609 110.33144 33603 ft 493 kts 52°
2026-04-25 10:12 17.45514 110.36075 33897 ft 493 kts 51°
2026-04-25 10:12 17.49385 110.42019 34413 ft 492 kts 52°
2026-04-25 10:13 17.51312 110.44984 34657 ft 492 kts 52°
2026-04-25 10:13 17.53239 110.47952 34852 ft 492 kts 52°
2026-04-25 10:13 17.55156 110.50911 34930 ft 491 kts 52°
2026-04-25 10:14 17.58997 110.56840 34949 ft 490 kts 52°
2026-04-25 10:14 17.62806 110.62726 34950 ft 490 kts 52°
2026-04-25 10:15 17.66630 110.68641 34951 ft 490 kts 52°
2026-04-25 10:15 17.70451 110.74556 34954 ft 490 kts 52°
2026-04-25 10:16 17.74260 110.80457 34953 ft 491 kts 52°
2026-04-25 10:16 17.78088 110.86391 34955 ft 491 kts 52°
2026-04-25 10:17 17.81903 110.92311 34956 ft 491 kts 52°
2026-04-25 10:17 17.85741 110.98273 34957 ft 491 kts 52°
2026-04-25 10:18 17.89548 111.04193 34961 ft 491 kts 52°
2026-04-25 10:18 17.93392 111.10174 34966 ft 491 kts 52°
2026-04-25 10:19 17.97193 111.16095 34964 ft 491 kts 52°
2026-04-25 10:19 18.01016 111.22056 34965 ft 491 kts 52°
2026-04-25 10:20 18.04837 111.28018 34962 ft 491 kts 52°
2026-04-25 10:20 18.08631 111.33944 34960 ft 491 kts 52°
2026-04-25 10:21 18.12455 111.39923 34961 ft 490 kts 52°
2026-04-25 10:21 18.16249 111.45860 34960 ft 490 kts 52°
2026-04-25 10:22 18.20040 111.51798 34954 ft 490 kts 52°
2026-04-25 10:22 18.23848 111.57768 34956 ft 490 kts 52°
2026-04-25 10:23 18.27637 111.63713 34956 ft 490 kts 52°
2026-04-25 10:23 18.30818 111.68709 34957 ft 490 kts 52°
2026-04-25 10:24 18.34608 111.74667 34955 ft 491 kts 52°
2026-04-25 10:24 18.38426 111.80673 34958 ft 491 kts 52°
2026-04-25 10:25 18.42204 111.86621 34961 ft 491 kts 52°
2026-04-25 10:25 18.46003 111.92610 34961 ft 491 kts 52°
2026-04-25 10:26 18.49804 111.98607 34965 ft 491 kts 52°
2026-04-25 10:26 18.53605 112.04609 34969 ft 491 kts 52°
2026-04-25 10:27 18.57399 112.10607 34968 ft 491 kts 52°
2026-04-25 10:27 18.61174 112.16579 34970 ft 492 kts 52°
2026-04-25 10:28 18.65146 112.22456 34964 ft 488 kts 45°
2026-04-25 10:28 18.69986 112.27332 34964 ft 480 kts 33°
2026-04-25 10:29 18.75413 112.31434 34963 ft 478 kts 31°
2026-04-25 10:29 18.80840 112.35527 34964 ft 478 kts 31°
2026-04-25 10:30 18.86230 112.39594 34966 ft 479 kts 31°
2026-04-25 10:30 18.91633 112.43670 34969 ft 479 kts 31°
2026-04-25 10:31 18.97125 112.47682 34968 ft 475 kts 25°
2026-04-25 10:31 19.03098 112.50388 34969 ft 465 kts 10°
2026-04-25 10:32 19.09427 112.51698 34969 ft 460 kts
2026-04-25 10:32 19.15721 112.52846 34974 ft 461 kts
2026-04-25 10:33 19.22037 112.54000 34976 ft 461 kts
2026-04-25 10:33 19.28400 112.55160 34978 ft 462 kts
2026-04-25 10:34 19.34715 112.56311 34977 ft 462 kts
2026-04-25 10:34 19.41030 112.57463 34981 ft 462 kts
2026-04-25 10:35 19.47382 112.58623 34985 ft 463 kts
2026-04-25 10:35 19.53750 112.59786 34980 ft 463 kts
2026-04-25 10:36 19.60104 112.60948 34976 ft 463 kts
2026-04-25 10:36 19.66421 112.62105 34979 ft 463 kts
2026-04-25 10:37 19.72792 112.63272 34979 ft 463 kts
2026-04-25 10:37 19.79149 112.64438 34988 ft 463 kts
2026-04-25 10:38 19.85483 112.65601 34982 ft 463 kts
2026-04-25 10:38 19.91865 112.66773 34986 ft 463 kts
2026-04-25 10:39 19.98185 112.67934 34984 ft 463 kts
2026-04-25 10:39 20.04548 112.69104 34982 ft 463 kts
2026-04-25 10:40 20.10913 112.70275 34982 ft 464 kts
2026-04-25 10:40 20.17283 112.71448 34980 ft 464 kts
2026-04-25 10:41 20.23627 112.72616 34979 ft 464 kts
2026-04-25 10:41 20.30000 112.73788 34982 ft 465 kts
2026-04-25 10:42 20.36389 112.74965 34983 ft 465 kts
2026-04-25 10:42 20.42733 112.76134 34982 ft 466 kts
2026-04-25 10:43 20.49149 112.77317 34984 ft 466 kts
2026-04-25 10:43 20.55556 112.78500 34985 ft 467 kts
2026-04-25 10:44 20.61934 112.79678 34984 ft 468 kts
2026-04-25 10:44 20.68352 112.80866 34990 ft 469 kts
2026-04-25 10:45 20.74799 112.82059 34991 ft 470 kts
2026-04-25 10:45 20.81266 112.83257 34991 ft 470 kts
2026-04-25 10:46 20.87688 112.84448 34992 ft 471 kts
2026-04-25 10:46 20.94178 112.85653 34995 ft 472 kts
2026-04-25 10:47 21.00664 112.86858 35000 ft 473 kts
2026-04-25 10:47 21.07101 112.88056 34773 ft 470 kts
2026-04-25 10:47 21.10336 112.88658 34186 ft 471 kts
2026-04-25 10:48 21.13583 112.89260 33294 ft 476 kts
2026-04-25 10:48 21.16878 112.89869 32223 ft 482 kts
2026-04-25 10:48 21.20224 112.90488 31132 ft 490 kts
2026-04-25 10:48 21.23551 112.91124 30150 ft 495 kts
2026-04-25 10:49 21.26874 112.92264 29081 ft 505 kts 20°
2026-04-25 10:49 21.28987 112.93436 28587 ft 506 kts 28°
2026-04-25 10:49 21.32625 112.96531 27724 ft 504 kts 43°
2026-04-25 10:49 21.34812 112.99445 27082 ft 501 kts 55°
2026-04-25 10:50 21.36427 113.02732 26456 ft 497 kts 67°
2026-04-25 10:50 21.37437 113.06269 25852 ft 492 kts 77°
2026-04-25 10:50 21.38164 113.09825 25259 ft 486 kts 77°
2026-04-25 10:50 21.38963 113.13337 24686 ft 480 kts 74°
2026-04-25 10:51 21.39883 113.16757 24122 ft 474 kts 72°
2026-04-25 10:51 21.40890 113.20106 23548 ft 469 kts 71°
2026-04-25 10:51 21.41925 113.23363 22881 ft 463 kts 70°
2026-04-25 10:51 21.42984 113.26619 22216 ft 459 kts 70°
2026-04-25 10:52 21.44036 113.29837 21592 ft 453 kts 70°
2026-04-25 10:52 21.45077 113.33022 20951 ft 449 kts 70°
2026-04-25 10:52 21.46093 113.36138 20345 ft 444 kts 70°
2026-04-25 10:52 21.47119 113.39292 19732 ft 440 kts 70°
2026-04-25 10:53 21.48109 113.42341 19152 ft 435 kts 70°
2026-04-25 10:53 21.49102 113.45402 18573 ft 431 kts 69°
2026-04-25 10:53 21.50083 113.48427 17957 ft 427 kts 69°
2026-04-25 10:53 21.51055 113.51428 17314 ft 422 kts 69°
2026-04-25 10:54 21.52019 113.54407 16674 ft 418 kts 69°
2026-04-25 10:54 21.52730 113.56312 16255 ft 414 kts 63°
2026-04-25 10:54 21.54825 113.59750 15494 ft 404 kts 47°
2026-04-25 10:54 21.56762 113.61866 14924 ft 398 kts 42°
2026-04-25 10:55 21.58726 113.63940 14433 ft 393 kts 42°
2026-04-25 10:55 21.60661 113.65994 13885 ft 390 kts 42°
2026-04-25 10:55 21.62575 113.68029 13538 ft 380 kts 43°
2026-04-25 10:55 21.64418 113.69992 13341 ft 366 kts 42°
2026-04-25 10:56 21.66191 113.71857 13121 ft 355 kts 41°
2026-04-25 10:56 21.68006 113.73645 12906 ft 354 kts 39°
2026-04-25 10:56 21.69851 113.75415 12450 ft 357 kts 39°
2026-04-25 10:56 21.71709 113.77198 11938 ft 357 kts 39°
2026-04-25 10:57 21.73551 113.78979 11450 ft 355 kts 39°
2026-04-25 10:57 21.75355 113.80736 11283 ft 346 kts 40°
2026-04-25 10:57 21.77146 113.82485 11156 ft 348 kts 40°
2026-04-25 10:57 21.78938 113.84237 10898 ft 349 kts 40°
2026-04-25 10:58 21.80742 113.86000 10442 ft 350 kts 40°
2026-04-25 10:58 21.82525 113.87739 10006 ft 348 kts 40°
2026-04-25 10:58 21.84317 113.89483 9532 ft 343 kts 40°
2026-04-25 10:58 21.86057 113.91170 9080 ft 331 kts 40°
2026-04-25 10:59 21.87747 113.92805 8634 ft 321 kts 40°
2026-04-25 10:59 21.89335 113.94341 8203 ft 312 kts 40°
2026-04-25 10:59 21.90958 113.95850 7768 ft 302 kts 31°
2026-04-25 10:59 21.92812 113.96695 7331 ft 287 kts
2026-04-25 11:00 21.94128 113.96732 7066 ft 275 kts 347°
2026-04-25 11:00 21.96328 113.95627 6598 ft 258 kts 317°
2026-04-25 11:00 21.97701 113.94427 6237 ft 249 kts 313°
2026-04-25 11:00 21.98825 113.93052 5865 ft 240 kts 306°
2026-04-25 11:01 21.99890 113.91685 5501 ft 236 kts 306°
2026-04-25 11:01 22.00585 113.90793 5251 ft 233 kts 306°
2026-04-25 11:01 22.01620 113.89455 4904 ft 234 kts 305°
2026-04-25 11:01 22.02655 113.88108 4660 ft 230 kts 305°
2026-04-25 11:02 22.03664 113.86791 4454 ft 226 kts 305°
2026-04-25 11:02 22.04660 113.85489 4327 ft 228 kts 305°
2026-04-25 11:02 22.05657 113.84181 4195 ft 227 kts 306°
2026-04-25 11:02 22.06658 113.82871 4079 ft 227 kts 306°
2026-04-25 11:03 22.07678 113.81536 3949 ft 228 kts 307°
2026-04-25 11:03 22.08674 113.80230 3823 ft 228 kts 306°
2026-04-25 11:03 22.09682 113.78910 3624 ft 228 kts 307°
2026-04-25 11:03 22.10789 113.77671 3325 ft 230 kts 320°
2026-04-25 11:04 22.12169 113.76814 3008 ft 231 kts 334°
2026-04-25 11:04 22.13634 113.76105 2791 ft 226 kts 335°
2026-04-25 11:04 22.15035 113.75414 2707 ft 216 kts 335°
2026-04-25 11:04 22.16345 113.74763 2695 ft 201 kts 335°
2026-04-25 11:05 22.17592 113.74139 2425 ft 196 kts 335°
2026-04-25 11:05 22.18811 113.73525 2147 ft 191 kts 336°
2026-04-25 11:05 22.19988 113.72934 2034 ft 187 kts 336°
2026-04-25 11:05 22.21184 113.72336 2004 ft 187 kts 336°
2026-04-25 11:06 22.22352 113.71752 2003 ft 189 kts 338°
2026-04-25 11:06 22.23638 113.71587 2002 ft 184 kts 15°
2026-04-25 11:06 22.24706 113.72273 2004 ft 183 kts 42°
2026-04-25 11:06 22.25649 113.73200 2005 ft 182 kts 44°
2026-04-25 11:07 22.26581 113.74133 2018 ft 183 kts 43°
2026-04-25 11:07 22.27529 113.75066 2014 ft 181 kts 46°
2026-04-25 11:07 22.28233 113.76188 2026 ft 183 kts 65°
2026-04-25 11:07 22.28707 113.77457 2022 ft 182 kts 71°
2026-04-25 11:08 22.29100 113.78720 1849 ft 170 kts 70°
2026-04-25 11:08 22.29465 113.79849 1635 ft 153 kts 70°
2026-04-25 11:08 22.29798 113.80891 1446 ft 137 kts 69°
2026-04-25 11:08 22.30098 113.81820 1262 ft 125 kts 70°
2026-04-25 11:09 22.30382 113.82705 1103 ft 129 kts 69°
2026-04-25 11:09 22.30680 113.83630 935 ft 131 kts 70°
2026-04-25 11:09 22.30979 113.84565 767 ft 131 kts 71°
2026-04-25 11:09 22.31275 113.85486 604 ft 130 kts 72°
2026-04-25 11:10 22.31372 113.85788 531 ft 129 kts 72°
2026-04-25 11:10 22.31539 113.86307 437 ft 129 kts 74°
2026-04-25 11:10 22.31829 113.87214 242 ft 130 kts 72°
2026-04-25 11:11 22.32130 113.88117 72 ft 124 kts 72°
2026-04-25 11:11 22.32403 113.88975 38 ft 102 kts 72°
2026-04-25 11:11 22.32568 113.89489 36 ft 47 kts 70°
2026-04-25 11:11 22.32672 113.89808 36 ft 43 kts 70°
2026-04-25 11:12 22.32699 113.90107 37 ft 33 kts 100°
2026-04-25 11:12 22.32685 113.90189 37 ft 8 kts 101°
2026-04-25 11:12 22.32672 113.90248 37 ft 8 kts 120°
2026-04-25 11:12 22.32610 113.90280 37 ft 12 kts 163°
2026-04-25 11:13 22.32520 113.90311 37 ft 15 kts 160°
2026-04-25 11:13 22.32416 113.90352 37 ft 17 kts 160°
2026-04-25 11:13 22.32296 113.90398 36 ft 20 kts 162°
2026-04-25 11:13 22.32160 113.90447 36 ft 22 kts 160°
2026-04-25 11:14 22.32013 113.90504 36 ft 23 kts 160°
2026-04-25 11:14 22.31854 113.90563 36 ft 25 kts 160°
2026-04-25 11:14 22.31696 113.90626 37 ft 21 kts 161°
2026-04-25 11:14 22.31604 113.90530 36 ft 22 kts 254°
2026-04-25 11:15 22.31552 113.90366 36 ft 24 kts 251°
2026-04-25 11:15 22.31492 113.90183 36 ft 27 kts 251°
2026-04-25 11:15 22.31429 113.89987 33 ft 27 kts 251°
2026-04-25 11:15 22.31382 113.89839 34 ft 19 kts 251°
2026-04-25 11:16 22.31198 113.89813 37 ft 18 kts 161°
2026-04-25 11:16 22.31071 113.89860 36 ft 20 kts 160°
2026-04-25 11:16 22.30935 113.89911 36 ft 19 kts 161°
2026-04-25 11:17 22.30878 113.89985 36 ft 13 kts 86°
2026-04-25 11:17 22.30911 113.90089 36 ft 16 kts 68°
2026-04-25 11:17 22.30955 113.90205 36 ft 18 kts 70°
2026-04-25 11:17 22.30991 113.90341 35 ft 20 kts 70°
2026-04-25 11:18 22.31038 113.90488 36 ft 22 kts 70°
2026-04-25 11:18 22.31090 113.90647 37 ft 23 kts 71°
2026-04-25 11:18 22.31146 113.90815 35 ft 24 kts 71°
2026-04-25 11:18 22.31201 113.90993 37 ft 26 kts 71°
2026-04-25 11:19 22.31262 113.91178 37 ft 27 kts 71°
2026-04-25 11:19 22.31324 113.91371 37 ft 28 kts 71°
2026-04-25 11:19 22.31387 113.91570 34 ft 29 kts 71°
2026-04-25 11:19 22.31442 113.91733 37 ft 18 kts 71°
2026-04-25 11:20 22.31392 113.91815 37 ft 14 kts 156°
2026-04-25 11:20 22.31349 113.91771 37 ft 11 kts 253°
2026-04-25 11:20 22.31341 113.91747 34 ft 0 kts 250°